Time,TemperatureF,DewpointF,PressureIn,WindDirection,WindDirectionDegrees,WindSpeedMPH,WindSpeedGustMPH,Humidity,HourlyPrecipIn,Conditions,Clouds,dailyrainin,SoftwareType,DateUTC
2013-01-01 00:03:00,38.0,36.0,30.08,WSW,255,0.0,-999.0,94,-99.99,,,-99.99,,2013-01-01 05:03:00,
2013-01-01 00:12:00,38.0,36.0,30.08,WSW,255,0.0,-999.0,94,-99.99,,,-99.99,,2013-01-01 05:12:00,
2013-01-01 00:22:00,38.0,36.0,30.06,WSW,255,0.0,-999.0,94,-99.99,,,-99.99,,2013-01-01 05:22:00,
2013-01-01 00:33:00,38.0,36.0,30.06,WSW,255,0.0,-999.0,94,-99.99,,,-99.99,,2013-01-01 05:33:00,
2013-01-01 00:42:00,38.0,36.0,30.06,WSW,255,0.0,-999.0,94,-99.99,,,-99.99,,2013-01-01 05:42:00,
2013-01-01 00:53:00,38.0,36.0,30.08,WSW,255,0.0,-999.0,94,-99.99,,,-99.99,,2013-01-01 05:53:00,
2013-01-01 01:02:00,39.0,37.0,30.08,WSW,255,0.0,-999.0,94,-99.99,,,-99.99,,2013-01-01 06:02:00,
2013-01-01 01:12:00,39.0,37.0,30.08,WSW,255,0.0,-999.0,94,-99.99,,,-99.99,,2013-01-01 06:12:00,
2013-01-01 01:22:00,39.0,37.0,30.05,WSW,255,0.0,-999.0,94,-99.99,,,-99.99,,2013-01-01 06:22:00,
2013-01-01 01:32:00,39.0,37.0,30.06,WSW,255,0.0,-999.0,94,-99.99,,,-99.99,,2013-01-01 06:32:00,
2013-01-01 01:42:00,39.0,37.0,30.06,WSW,255,0.0,-999.0,94,-99.99,,,-99.99,,2013-01-01 06:42:00,
2013-01-01 01:52:00,39.0,37.0,30.03,WSW,255,0.0,-999.0,94,-99.99,,,-99.99,,2013-01-01 06:52:00,
2013-01-01 02:02:00,39.0,37.0,30.03,WSW,255,0.0,-999.0,94,-99.99,,,-99.99,,2013-01-01 07:02:00,
2013-01-01 02:12:00,39.0,37.0,30.03,WSW,255,0.0,-999.0,94,-99.99,,,-99.99,,2013-01-01 07:12:00,
2013-01-01 02:22:00,39.0,37.0,30.03,WSW,255,0.0,-999.0,94,-99.99,,,-99.99,,2013-01-01 07:22:00,
2013-01-01 02:32:00,39.0,38.0,30.03,WSW,255,0.0,-999.0,95,-99.99,,,-99.99,,2013-01-01 07:32:00,
2013-01-01 02:42:00,39.0,38.0,30.03,WSW,255,0.0,-999.0,95,-99.99,,,-99.99,,2013-01-01 07:42:00,
2013-01-01 02:53:00,40.0,39.0,30.03,WSW,255,0.0,-999.0,95,-99.99,,,-99.99,,2013-01-01 07:53:00,
2013-01-01 03:02:00,40.0,39.0,30.05,WSW,255,0.0,-999.0,95,-99.99,,,-99.99,,2013-01-01 08:02:00,
2013-01-01 03:12:00,40.0,39.0,30.05,WSW,255,0.0,-999.0,95,-99.99,,,-99.99,,2013-01-01 08:12:00,
2013-01-01 03:22:00,40.0,39.0,30.05,WSW,255,0.0,-999.0,95,-99.99,,,-99.99,,2013-01-01 08:22:00,
2013-01-01 03:32:00,40.0,39.0,30.03,WSW,255,0.0,-999.0,95,-99.99,,,-99.99,,2013-01-01 08:32:00,
2013-01-01 03:42:00,39.0,38.0,30.04,WSW,255,0.0,-999.0,95,-99.99,,,-99.99,,2013-01-01 08:42:00,
2013-01-01 03:53:00,39.0,38.0,30.04,WSW,255,0.0,-999.0,95,-99.99,,,-99.99,,2013-01-01 08:53:00,
2013-01-01 04:02:00,40.0,39.0,30.04,WSW,255,0.0,-999.0,95,-99.99,,,-99.99,,2013-01-01 09:02:00,
2013-01-01 04:12:00,40.0,39.0,30.04,WSW,255,0.0,-999.0,95,-99.99,,,-99.99,,2013-01-01 09:12:00,
2013-01-01 04:22:00,40.0,39.0,30.05,WSW,255,0.0,-999.0,95,-99.99,,,-99.99,,2013-01-01 09:22:00,
2013-01-01 04:32:00,40.0,39.0,30.06,NNE,19,1.0,-999.0,95,-99.99,,,-99.99,,2013-01-01 09:32:00,
2013-01-01 04:42:00,40.0,39.0,30.06,NNE,19,1.0,-999.0,95,-99.99,,,-99.99,,2013-01-01 09:42:00,
2013-01-01 04:52:00,39.0,38.0,30.06,North,5,1.0,-999.0,95,-99.99,,,-99.99,,2013-01-01 09:52:00,
2013-01-01 05:02:00,39.0,38.0,30.06,NE,37,0.0,-999.0,95,-99.99,,,-99.99,,2013-01-01 10:02:00,
2013-01-01 05:12:00,39.0,38.0,30.06,NE,53,1.0,-999.0,95,-99.99,,,-99.99,,2013-01-01 10:12:00,
2013-01-01 05:22:00,39.0,38.0,30.06,NE,53,1.0,-999.0,95,-99.99,,,-99.99,,2013-01-01 10:22:00,
2013-01-01 05:33:00,38.0,37.0,30.07,East,94,0.0,-999.0,95,-99.99,,,-99.99,,2013-01-01 10:33:00,
2013-01-01 05:42:00,38.0,37.0,30.07,East,94,0.0,-999.0,95,-99.99,,,-99.99,,2013-01-01 10:42:00,
2013-01-01 05:53:00,38.0,37.0,30.06,East,89,0.0,-999.0,96,-99.99,,,-99.99,,2013-01-01 10:53:00,
2013-01-01 06:02:00,38.0,37.0,30.07,East,89,0.0,-999.0,95,-99.99,,,-99.99,,2013-01-01 11:02:00,
2013-01-01 06:12:00,38.0,37.0,30.07,East,89,0.0,-999.0,95,-99.99,,,-99.99,,2013-01-01 11:12:00,
2013-01-01 06:23:00,38.0,37.0,30.07,East,89,0.0,-999.0,96,-99.99,,,-99.99,,2013-01-01 11:23:00,
2013-01-01 06:33:00,38.0,37.0,30.06,East,89,0.0,-999.0,96,-99.99,,,-99.99,,2013-01-01 11:33:00,
2013-01-01 06:43:00,38.0,37.0,30.06,East,89,0.0,-999.0,96,-99.99,,,-99.99,,2013-01-01 11:43:00,
2013-01-01 06:53:00,38.0,37.0,30.07,East,89,0.0,-999.0,96,-99.99,,,-99.99,,2013-01-01 11:53:00,
2013-01-01 07:03:00,38.0,37.0,30.07,East,89,0.0,-999.0,96,-99.99,,,-99.99,,2013-01-01 12:03:00,
2013-01-01 07:12:00,38.0,37.0,30.07,East,89,0.0,-999.0,96,-99.99,,,-99.99,,2013-01-01 12:12:00,
2013-01-01 07:22:00,38.0,37.0,30.07,East,89,0.0,-999.0,96,-99.99,,,-99.99,,2013-01-01 12:22:00,
2013-01-01 07:33:00,38.0,37.0,30.07,East,89,0.0,-999.0,96,-99.99,,,-99.99,,2013-01-01 12:33:00,
2013-01-01 07:43:00,38.0,37.0,30.07,East,89,0.0,-999.0,96,-99.99,,,-99.99,,2013-01-01 12:43:00,
2013-01-01 07:53:00,38.0,37.0,30.06,East,89,0.0,-999.0,96,-99.99,,,-99.99,,2013-01-01 12:53:00,
2013-01-01 08:03:00,38.0,37.0,30.06,East,89,0.0,-999.0,96,-99.99,,,-99.99,,2013-01-01 13:03:00,
2013-01-01 08:12:00,38.0,37.0,30.06,East,89,0.0,-999.0,96,-99.99,,,-99.99,,2013-01-01 13:12:00,
2013-01-01 08:22:00,39.0,38.0,30.07,East,89,0.0,-999.0,96,-99.99,,,-99.99,,2013-01-01 13:22:00,
2013-01-01 08:33:00,39.0,38.0,30.06,East,89,0.0,-999.0,96,-99.99,,,-99.99,,2013-01-01 13:33:00,
2013-01-01 08:43:00,39.0,38.0,30.06,East,89,0.0,-999.0,96,-99.99,,,-99.99,,2013-01-01 13:43:00,
2013-01-01 08:53:00,39.0,38.0,30.06,East,89,0.0,-999.0,96,-99.99,,,-99.99,,2013-01-01 13:53:00,
2013-01-01 09:02:00,39.0,38.0,30.05,East,89,0.0,-999.0,96,-99.99,,,-99.99,,2013-01-01 14:02:00,
2013-01-01 09:12:00,39.0,38.0,30.05,East,89,0.0,-999.0,96,-99.99,,,-99.99,,2013-01-01 14:12:00,
2013-01-01 09:22:00,39.0,38.0,30.05,East,89,0.0,-999.0,96,-99.99,,,-99.99,,2013-01-01 14:22:00,
2013-01-01 09:32:00,40.0,39.0,30.05,East,89,0.0,-999.0,96,-99.99,,,-99.99,,2013-01-01 14:32:00,
2013-01-01 09:42:00,40.0,39.0,30.05,East,89,0.0,-999.0,96,-99.99,,,-99.99,,2013-01-01 14:42:00,
2013-01-01 09:53:00,40.0,39.0,30.05,East,89,0.0,-999.0,96,-99.99,,,-99.99,,2013-01-01 14:53:00,
2013-01-01 10:03:00,41.0,40.0,30.04,East,89,0.0,-999.0,96,-99.99,,,-99.99,,2013-01-01 15:03:00,
2013-01-01 10:12:00,41.0,40.0,30.04,East,89,0.0,-999.0,96,-99.99,,,-99.99,,2013-01-01 15:12:00,
2013-01-01 10:22:00,41.0,40.0,30.04,East,89,0.0,-999.0,96,-99.99,,,-99.99,,2013-01-01 15:22:00,
2013-01-01 10:33:00,42.0,41.0,30.03,East,89,0.0,-999.0,97,-99.99,,,-99.99,,2013-01-01 15:33:00,
2013-01-01 10:42:00,42.0,41.0,30.03,East,89,0.0,-999.0,97,-99.99,,,-99.99,,2013-01-01 15:42:00,
2013-01-01 10:53:00,43.0,42.0,30.01,East,89,0.0,-999.0,96,-99.99,,,-99.99,,2013-01-01 15:53:00,
2013-01-01 11:02:00,44.0,43.0,30.01,East,89,0.0,-999.0,96,-99.99,,,-99.99,,2013-01-01 16:02:00,
2013-01-01 11:12:00,44.0,43.0,30.01,East,89,0.0,-999.0,96,-99.99,,,-99.99,,2013-01-01 16:12:00,
2013-01-01 11:22:00,45.0,44.0,29.97,SSE,155,2.0,-999.0,97,-99.99,,,-99.99,,2013-01-01 16:22:00,
2013-01-01 11:33:00,47.0,46.0,30.00,WSW,256,0.0,-999.0,97,-99.99,,,-99.99,,2013-01-01 16:33:00,
2013-01-01 11:42:00,47.0,46.0,30.00,WSW,256,0.0,-999.0,97,-99.99,,,-99.99,,2013-01-01 16:42:00,
2013-01-01 11:53:00,48.0,47.0,30.00,SSW,205,1.0,-999.0,97,-99.99,,,-99.99,,2013-01-01 16:53:00,
2013-01-01 12:02:00,49.0,48.0,29.99,SW,228,0.0,-999.0,97,-99.99,,,-99.99,,2013-01-01 17:02:00,
2013-01-01 12:12:00,49.0,48.0,29.99,SW,228,0.0,-999.0,97,-99.99,,,-99.99,,2013-01-01 17:12:00,
2013-01-01 12:22:00,49.0,48.0,30.01,NW,306,2.0,-999.0,97,-99.99,,,-99.99,,2013-01-01 17:22:00,
2013-01-01 12:33:00,49.0,48.0,29.99,WNW,284,1.0,-999.0,97,-99.99,,,-99.99,,2013-01-01 17:33:00,
2013-01-01 12:43:00,49.0,48.0,29.99,WNW,284,1.0,-999.0,97,-99.99,,,-99.99,,2013-01-01 17:43:00,
2013-01-01 12:53:00,48.0,47.0,30.01,West,262,1.0,-999.0,97,-99.99,,,-99.99,,2013-01-01 17:53:00,
2013-01-01 13:03:00,48.0,47.0,30.01,West,262,0.0,-999.0,97,-99.99,,,-99.99,,2013-01-01 18:03:00,
2013-01-01 13:12:00,48.0,47.0,30.01,West,262,0.0,-999.0,97,-99.99,,,-99.99,,2013-01-01 18:12:00,
2013-01-01 13:23:00,47.0,46.0,30.01,West,262,0.0,-999.0,97,-99.99,,,-99.99,,2013-01-01 18:23:00,
2013-01-01 13:33:00,48.0,47.0,29.99,SW,229,2.0,-999.0,97,-99.99,,,-99.99,,2013-01-01 18:33:00,
2013-01-01 13:42:00,48.0,47.0,29.99,SW,229,2.0,-999.0,97,-99.99,,,-99.99,,2013-01-01 18:42:00,
2013-01-01 13:53:00,48.0,47.0,29.99,SW,229,2.0,-999.0,97,-99.99,,,-99.99,,2013-01-01 18:53:00,
2013-01-01 14:02:00,47.0,46.0,29.97,SW,221,1.0,-999.0,97,-99.99,,,-99.99,,2013-01-01 19:02:00,
2013-01-01 14:12:00,47.0,46.0,29.97,SW,221,1.0,-999.0,97,-99.99,,,-99.99,,2013-01-01 19:12:00,
2013-01-01 14:22:00,48.0,47.0,29.97,SW,221,0.0,-999.0,97,-99.99,,,-99.99,,2013-01-01 19:22:00,
2013-01-01 14:33:00,48.0,47.0,29.97,SW,223,1.0,-999.0,97,-99.99,,,-99.99,,2013-01-01 19:33:00,
2013-01-01 14:42:00,48.0,47.0,29.97,SW,223,1.0,-999.0,97,-99.99,,,-99.99,,2013-01-01 19:42:00,
2013-01-01 14:53:00,48.0,47.0,29.96,SW,223,0.0,-999.0,97,-99.99,,,-99.99,,2013-01-01 19:53:00,
2013-01-01 15:02:00,48.0,47.0,29.97,SW,223,0.0,-999.0,97,-99.99,,,-99.99,,2013-01-01 20:02:00,
2013-01-01 15:12:00,48.0,47.0,29.97,SW,223,0.0,-999.0,97,-99.99,,,-99.99,,2013-01-01 20:12:00,
2013-01-01 15:23:00,48.0,47.0,29.98,SW,223,0.0,-999.0,97,-99.99,,,-99.99,,2013-01-01 20:23:00,
2013-01-01 15:32:00,48.0,47.0,29.98,SW,225,0.0,-999.0,97,-99.99,,,-99.99,,2013-01-01 20:32:00,
2013-01-01 15:42:00,48.0,47.0,29.98,SW,225,0.0,-999.0,97,-99.99,,,-99.99,,2013-01-01 20:42:00,
2013-01-01 15:53:00,48.0,47.0,29.98,SW,225,0.0,-999.0,97,-99.99,,,-99.99,,2013-01-01 20:53:00,
2013-01-01 16:03:00,48.0,47.0,29.98,SW,225,0.0,-999.0,97,-99.99,,,-99.99,,2013-01-01 21:03:00,
2013-01-01 16:13:00,48.0,47.0,29.98,SW,225,0.0,-999.0,97,-99.99,,,-99.99,,2013-01-01 21:13:00,
2013-01-01 16:22:00,48.0,47.0,29.98,SW,225,0.0,-999.0,97,-99.99,,,-99.99,,2013-01-01 21:22:00,
2013-01-01 16:33:00,49.0,48.0,29.99,SW,225,0.0,-999.0,97,-99.99,,,-99.99,,2013-01-01 21:33:00,
2013-01-01 16:42:00,49.0,48.0,29.99,SW,225,0.0,-999.0,97,-99.99,,,-99.99,,2013-01-01 21:42:00,
2013-01-01 16:53:00,49.0,48.0,29.98,SW,225,0.0,-999.0,97,-99.99,,,-99.99,,2013-01-01 21:53:00,
2013-01-01 17:03:00,49.0,48.0,29.99,SW,225,0.0,-999.0,97,-99.99,,,-99.99,,2013-01-01 22:03:00,
2013-01-01 17:12:00,49.0,48.0,29.99,SW,225,0.0,-999.0,97,-99.99,,,-99.99,,2013-01-01 22:12:00,
2013-01-01 17:22:00,48.0,47.0,29.98,SW,225,0.0,-999.0,97,-99.99,,,-99.99,,2013-01-01 22:22:00,
2013-01-01 17:33:00,48.0,47.0,29.97,SW,225,0.0,-999.0,97,-99.99,,,-99.99,,2013-01-01 22:33:00,
2013-01-01 17:42:00,48.0,47.0,29.97,SW,225,0.0,-999.0,97,-99.99,,,-99.99,,2013-01-01 22:42:00,
2013-01-01 17:53:00,48.0,47.0,29.98,SW,225,0.0,-999.0,97,-99.99,,,-99.99,,2013-01-01 22:53:00,
2013-01-01 18:03:00,48.0,47.0,29.97,SW,221,1.0,-999.0,97,-99.99,,,-99.99,,2013-01-01 23:03:00,
2013-01-01 18:12:00,48.0,47.0,29.97,SW,221,1.0,-999.0,97,-99.99,,,-99.99,,2013-01-01 23:12:00,
2013-01-01 18:22:00,47.0,46.0,29.99,SW,222,0.0,-999.0,97,-99.99,,,-99.99,,2013-01-01 23:22:00,
2013-01-01 18:32:00,47.0,46.0,29.99,SW,222,0.0,-999.0,97,-99.99,,,-99.99,,2013-01-01 23:32:00,
2013-01-01 18:42:00,47.0,46.0,29.99,SW,222,0.0,-999.0,97,-99.99,,,-99.99,,2013-01-01 23:42:00,
2013-01-01 18:53:00,46.0,45.0,29.99,SW,222,0.0,-999.0,97,-99.99,,,-99.99,,2013-01-01 23:53:00,
2013-01-01 19:03:00,46.0,45.0,30.00,SW,222,0.0,-999.0,96,-99.99,,,-99.99,,2013-01-02 00:03:00,
2013-01-01 19:12:00,46.0,45.0,30.00,SW,222,0.0,-999.0,96,-99.99,,,-99.99,,2013-01-02 00:12:00,
2013-01-01 19:22:00,45.0,44.0,30.01,SW,222,0.0,-999.0,97,-99.99,,,-99.99,,2013-01-02 00:22:00,
2013-01-01 19:32:00,45.0,44.0,30.00,SW,222,0.0,-999.0,97,-99.99,,,-99.99,,2013-01-02 00:32:00,
2013-01-01 19:42:00,45.0,44.0,30.00,SW,222,0.0,-999.0,97,-99.99,,,-99.99,,2013-01-02 00:42:00,
2013-01-01 19:53:00,45.0,44.0,29.99,SW,222,0.0,-999.0,96,-99.99,,,-99.99,,2013-01-02 00:53:00,
2013-01-01 20:02:00,45.0,44.0,29.99,SW,222,0.0,-999.0,96,-99.99,,,-99.99,,2013-01-02 01:02:00,
2013-01-01 20:12:00,45.0,44.0,29.99,SW,222,0.0,-999.0,96,-99.99,,,-99.99,,2013-01-02 01:12:00,
2013-01-01 20:22:00,45.0,44.0,30.00,SW,222,0.0,-999.0,97,-99.99,,,-99.99,,2013-01-02 01:22:00,
2013-01-01 20:32:00,45.0,44.0,30.00,SW,222,0.0,-999.0,97,-99.99,,,-99.99,,2013-01-02 01:32:00,
2013-01-01 20:42:00,45.0,44.0,30.00,SW,222,0.0,-999.0,97,-99.99,,,-99.99,,2013-01-02 01:42:00,
2013-01-01 20:52:00,45.0,44.0,30.01,SW,222,0.0,-999.0,97,-99.99,,,-99.99,,2013-01-02 01:52:00,
2013-01-01 21:02:00,45.0,44.0,30.00,SW,222,0.0,-999.0,97,-99.99,,,-99.99,,2013-01-02 02:02:00,
2013-01-01 21:12:00,45.0,44.0,30.00,SW,222,0.0,-999.0,97,-99.99,,,-99.99,,2013-01-02 02:12:00,
2013-01-01 21:22:00,45.0,44.0,29.99,SW,222,0.0,-999.0,97,-99.99,,,-99.99,,2013-01-02 02:22:00,
2013-01-01 21:32:00,45.0,44.0,30.00,SW,222,0.0,-999.0,97,-99.99,,,-99.99,,2013-01-02 02:32:00,
2013-01-01 21:42:00,45.0,44.0,30.00,SW,222,0.0,-999.0,97,-99.99,,,-99.99,,2013-01-02 02:42:00,
2013-01-01 21:53:00,45.0,44.0,30.01,SW,222,0.0,-999.0,97,-99.99,,,-99.99,,2013-01-02 02:53:00,
2013-01-01 22:02:00,45.0,44.0,30.00,SW,222,0.0,-999.0,96,-99.99,,,-99.99,,2013-01-02 03:02:00,
2013-01-01 22:12:00,45.0,44.0,30.00,SW,222,0.0,-999.0,96,-99.99,,,-99.99,,2013-01-02 03:12:00,
2013-01-01 22:22:00,45.0,44.0,30.00,SW,222,0.0,-999.0,96,-99.99,,,-99.99,,2013-01-02 03:22:00,
2013-01-01 22:32:00,44.0,43.0,29.99,SW,222,0.0,-999.0,96,-99.99,,,-99.99,,2013-01-02 03:32:00,
2013-01-01 22:42:00,44.0,43.0,29.99,SW,222,0.0,-999.0,96,-99.99,,,-99.99,,2013-01-02 03:42:00,
2013-01-01 22:53:00,44.0,43.0,29.99,SW,222,0.0,-999.0,97,-99.99,,,-99.99,,2013-01-02 03:53:00,
2013-01-01 23:02:00,44.0,43.0,30.00,SW,222,0.0,-999.0,97,-99.99,,,-99.99,,2013-01-02 04:02:00,
2013-01-01 23:12:00,44.0,43.0,30.00,SW,222,0.0,-999.0,97,-99.99,,,-99.99,,2013-01-02 04:12:00,
2013-01-01 23:22:00,44.0,43.0,29.98,SW,222,0.0,-999.0,97,-99.99,,,-99.99,,2013-01-02 04:22:00,
2013-01-01 23:32:00,44.0,43.0,29.98,SW,222,0.0,-999.0,97,-99.99,,,-99.99,,2013-01-02 04:32:00,
2013-01-01 23:42:00,44.0,43.0,29.98,SW,222,0.0,-999.0,97,-99.99,,,-99.99,,2013-01-02 04:42:00,
2013-01-01 23:52:00,44.0,43.0,30.00,SW,222,0.0,-999.0,96,-99.99,,,-99.99,,2013-01-02 04:52:00,